STARLINK-4496 (53412 NORAD) Tracking and Keplerian Element Data

This shows tracking and keplerian element data for the satellite.

Feedback or suggestion? Click here.




ElementValue
Catalog53412
NameSTARLINK-4496
Epoch Orbit797
Epoch Day270.25001157
Epoch Year2022
RAAN11.4482
Inclination53.2169
Eccentricity0.0001669
Argument of Perigee37.3704
Mean Anonmoly230.7476
Mean Motion15.49877725
Decay Rate0.00043014
L11 53412U 22097AA 22270.25001157 .00043014 00000+0 76183-3 0 9998
L22 53412 53.2169 11.4482 0001669 37.3704 230.7476 15.49877725 7976

Live tracking and technical data element details for STARLINK-4496 (NORAD 53412). STARLINK-4496 can be tracked NOW for your location showing map with azimuth and elevation plus other details from your city location.

Track the satellite on the map from your city or location and see movement details for azimuth, elevation, latitude, longitude, range, height, and movement on the map or in text.







IsCatalogInMostPopularTable: catalog: 53412, numindb: 1
Update: records affected: 1



GetName: 53412 STARLINK-4496

Hit Count: updated at: Thu, 29 Sep 2022 11:44:37 GMT